N2PUI Weather Reports


time (UTC)temp
F
wind
direction
speed
knots
gust
knots
rain 1hr
in
rain 24hr
in
rain mn
in
humidity
%
barometer
mb
20260505060230 60 148 0.9 1.7 0.00 0.00 0.00 57 1007.0
20260505055724 60 134 4.3 5.2 0.00 0.00 0.00 56 1006.9
20260505055221 60 125 2.6 4.3 0.00 0.00 0.00 56 1007.3
20260505054719 60 128 2.6 2.6 0.00 0.00 0.00 56 1007.1
20260505054216 60 128 1.7 1.7 0.00 0.00 0.00 56 1007.3
20260505053714 60 123 2.6 2.6 0.00 0.00 0.00 56 1006.9
20260505053210 61 126 3.5 4.3 0.00 0.00 0.00 55 1007.1
20260505052708 61 126 2.6 2.6 0.00 0.00 0.00 55 1007.0
20260505052204 61 137 2.6 4.3 0.00 0.00 0.00 54 1007.0
20260505051702 61 122 1.7 1.7 0.00 0.00 0.00 55 1007.3
20260505051200 61 122 2.6 2.6 0.00 0.00 0.00 54 1007.3
20260505050657 62 127 1.7 1.7 0.00 0.00 0.00 54 1007.2
20260505050155 62 133 2.6 4.3 0.00 0.00 0.00 53 1007.3
20260505041625 63 114 2.6 2.6 0.00 0.00 0.00 51 1007.0
20260505041123 63 158 1.7 1.7 0.00 0.00 0.00 51 1006.9
20260505040619 63 195 3.5 4.3 0.00 0.00 0.00 51 1007.1
20260505040117 63 188 6.1 7.0 0.00 0.00 0.00 51 1007.1
20260505035613 63 178 2.6 2.6 0.00 0.00 0.00 50 1007.1
20260505035109 63 140 2.6 2.6 0.00 0.00 0.00 50 1007.1
20260505034606 63 153 1.7 1.7 0.00 0.00 0.00 50 1007.1
20260505034103 63 146 2.6 4.3 0.00 0.00 0.00 50 1007.0
20260505033559 64 165 0.9 1.7 0.00 0.00 0.00 50 1007.2
20260505033058 64 194 2.6 4.3 0.00 0.00 0.00 49 1007.1
20260505032555 63 160 2.6 5.2 0.00 0.00 0.00 50 1006.9
20260505032051 63 163 1.7 1.7 0.00 0.00 0.00 50 1007.2
20260505031549 64 155 1.7 1.7 0.00 0.00 0.00 49 1007.2
20260505031045 64 180 0.9 0.9 0.00 0.00 0.00 49 1007.0
20260505030543 64 144 3.5 5.2 0.00 0.00 0.00 49 1007.1
20260505030038 64 203 3.5 5.2 0.00 0.00 0.00 48 1007.1
20260505025534 63 186 0.9 0.9 0.00 0.00 0.00 49 1007.1
20260505025033 64 140 0.0 0.9 0.00 0.00 0.00 49 1007.3
20260505024530 64 162 3.5 4.3 0.00 0.00 0.00 48 1007.4
20260505024027 64 157 0.9 0.9 0.00 0.00 0.00 48 1007.2
20260505023524 64 165 3.5 6.1 0.00 0.00 0.00 48 1007.1
20260505023022 64 154 1.7 1.7 0.00 0.00 0.00 48 1007.2
20260505022519 64 170 2.6 2.6 0.00 0.00 0.00 48 1007.5
20260505022016 64 173 4.3 5.2 0.00 0.00 0.00 47 1007.2
20260505021513 64 137 2.6 2.6 0.00 0.00 0.00 47 1007.0
20260505021009 64 170 3.5 5.2 0.00 0.00 0.00 47 1007.3
20260505020503 64 162 1.7 1.7 0.00 0.00 0.00 47 1007.2
20260505020000 64 97 2.6 5.2 0.00 0.00 0.00 47 1007.2
20260505015458 64 165 1.7 1.7 0.00 0.00 0.00 47 1007.2
20260505014955 64 164 0.0 0.9 0.00 0.00 0.00 47 1007.4
20260505014452 65 157 2.6 4.3 0.00 0.00 0.00 46 1007.2
20260505013949 64 140 1.7 1.7 0.00 0.00 0.00 46 1007.1
20260505013446 65 129 1.7 1.7 0.00 0.00 0.00 46 1007.0
20260505012943 65 152 2.6 2.6 0.00 0.00 0.00 45 1007.3
20260505012441 65 182 1.7 1.7 0.00 0.00 0.00 46 1007.0
20260505011938 65 137 2.6 2.6 0.00 0.00 0.00 45 1007.1
20260505011433 65 144 1.7 2.6 0.00 0.00 0.00 46 1007.2
20260505010930 65 121 2.6 2.6 0.00 0.00 0.00 45 1006.9
20260505010426 65 145 4.3 7.0 0.00 0.00 0.00 45 1006.9
20260505005922 66 108 1.7 1.7 0.00 0.00 0.00 45 1006.9
20260505005420 66 141 1.7 2.6 0.00 0.00 0.00 44 1006.7
20260505004917 66 172 3.5 5.2 0.00 0.00 0.00 44 1006.6
20260505004413 66 153 2.6 2.6 0.00 0.00 0.00 44 1006.9
20260505003910 66 117 2.6 2.6 0.00 0.00 0.00 44 1006.4
20260505003407 67 133 2.6 4.3 0.00 0.00 0.00 43 1006.7
20260505002904 67 191 4.3 6.1 0.00 0.00 0.00 42 1006.7
20260505002400 67 161 2.6 2.6 0.00 0.00 0.00 43 1006.4
20260505001859 67 177 4.3 6.1 0.00 0.00 0.00 42 1006.3
20260505001356 67 170 2.6 4.3 0.00 0.00 0.00 42 1006.3
20260505000853 67 163 1.7 1.7 0.00 0.00 0.00 42 1006.3
20260505000351 68 160 0.0 0.9 0.00 0.00 0.00 42 1006.4
20260504235847 68 175 5.2 7.8 0.00 0.00 0.00 41 1006.4
20260504235344 68 151 5.2 7.0 0.00 0.00 0.00 41 1006.4
20260504234840 68 168 1.7 2.6 0.00 0.00 0.00 41 1006.0
20260504234338 68 173 4.3 6.1 0.00 0.00 0.00 40 1006.3
20260504233835 68 147 1.7 1.7 0.00 0.00 0.00 41 1005.9
20260504233330 69 159 1.7 1.7 0.00 0.00 0.00 41 1005.8
20260504232827 69 144 4.3 5.2 0.00 0.00 0.00 39 1005.9
20260504232324 69 145 3.5 5.2 0.00 0.00 0.00 40 1005.8
20260504231821 69 174 4.3 5.2 0.00 0.00 0.00 39 1006.0
20260504231318 70 184 3.5 4.3 0.00 0.00 0.00 38 1005.8
20260504230814 70 178 6.1 7.0 0.00 0.00 0.00 38 1005.7
20260504230312 71 169 2.6 4.3 0.00 0.00 0.00 37 1005.9
20260504225811 71 173 5.2 7.8 0.00 0.00 0.00 36 1005.9
20260504225306 72 243 2.6 5.2 0.00 0.00 0.00 34 1005.9
20260504224804 72 142 1.7 2.6 0.00 0.00 0.00 32 1005.7
20260504224301 72 153 5.2 7.0 0.00 0.00 0.00 32 1005.7
20260504223757 72 185 0.9 0.9 0.00 0.00 0.00 33 1005.7
20260504223253 72 235 4.3 6.1 0.00 0.00 0.00 31 1006.0
20260504222750 72 207 0.9 1.7 0.00 0.00 0.00 32 1006.0
20260504222246 72 228 2.6 4.3 0.00 0.00 0.00 32 1005.9
20260504221744 72 186 1.7 1.7 0.00 0.00 0.00 33 1005.9
20260504221241 73 147 1.7 2.6 0.00 0.00 0.00 34 1005.7
20260504220738 72 177 0.9 1.7 0.00 0.00 0.00 32 1005.8
20260504220235 73 210 1.7 1.7 0.00 0.00 0.00 32 1005.9
20260504215732 72 203 2.6 2.6 0.00 0.00 0.00 33 1005.9
20260504215229 73 111 9.6 11.3 0.00 0.00 0.00 33 1005.8
20260504214725 73 189 1.7 1.7 0.00 0.00 0.00 34 1005.9
20260504214221 73 128 2.6 4.3 0.00 0.00 0.00 33 1005.8
20260504213718 72 218 5.2 7.0 0.00 0.00 0.00 33 1006.0
20260504213215 72 143 3.5 7.8 0.00 0.00 0.00 35 1006.0
20260504212712 71 213 3.5 4.3 0.00 0.00 0.00 33 1006.0
20260504212208 71 245 1.7 1.7 0.00 0.00 0.00 37 1006.0
20260504211706 71 186 4.3 5.2 0.00 0.00 0.00 35 1005.8
20260504211201 70 248 4.3 5.2 0.00 0.00 0.00 36 1006.1
20260504210654 71 205 3.5 4.3 0.00 0.00 0.00 35 1006.1
20260504210150 72 215 3.5 5.2 0.00 0.00 0.00 35 1006.2
20260504205648 72 193 3.5 4.3 0.00 0.00 0.00 35 1006.2
20260504205145 71 203 3.5 4.3 0.00 0.00 0.00 36 1006.2
20260504204643 71 246 6.1 7.0 0.00 0.00 0.00 35 1006.2
20260504204142 71 210 3.5 5.2 0.00 0.00 0.00 37 1006.6
20260504203640 70 199 5.2 7.0 0.00 0.00 0.00 38 1006.4
20260504203138 71 222 6.1 9.6 0.00 0.00 0.00 35 1006.4
20260504202637 71 225 4.3 6.1 0.00 0.00 0.00 35 1006.7
20260504202135 71 208 2.6 2.6 0.00 0.00 0.00 37 1006.8
20260504201631 71 174 3.5 6.1 0.00 0.00 0.00 36 1006.7
20260504201129 71 178 4.3 5.2 0.00 0.00 0.00 36 1006.8
20260504200626 72 249 1.7 2.6 0.00 0.00 0.00 36 1006.7
20260504200123 73 232 2.6 2.6 0.00 0.00 0.00 35 1006.9
20260504195618 73 240 7.0 12.2 0.00 0.00 0.00 34 1006.8
20260504195115 72 148 1.7 2.6 0.00 0.00 0.00 36 1007.0
20260504194612 72 208 0.9 0.9 0.00 0.00 0.00 37 1007.1
20260504194108 71 206 3.5 5.2 0.00 0.00 0.00 37 1007.1
20260504193604 71 231 3.5 5.2 0.00 0.00 0.00 37 1007.1
20260504193103 71 228 2.6 4.3 0.00 0.00 0.00 39 1007.3
20260504192601 71 214 3.5 4.3 0.00 0.00 0.00 39 1007.2
20260504192058 73 254 5.2 7.0 0.00 0.00 0.00 35 1007.4
20260504191556 72 252 4.3 5.2 0.00 0.00 0.00 36 1007.3
20260504191052 71 87 2.6 2.6 0.00 0.00 0.00 37 1007.3
20260504190549 70 224 3.5 4.3 0.00 0.00 0.00 38 1007.4
20260504190045 70 216 6.1 8.7 0.00 0.00 0.00 37 1007.5
20260504185542 71 216 7.0 7.8 0.00 0.00 0.00 39 1007.6
20260504185038 71 215 4.3 6.1 0.00 0.00 0.00 38 1007.5
20260504184534 71 200 4.3 5.2 0.00 0.00 0.00 39 1007.6
20260504184029 71 227 3.5 6.1 0.00 0.00 0.00 39 1007.6
20260504183527 70 187 6.1 8.7 0.00 0.00 0.00 40 1007.6
20260504183025 70 225 4.3 6.1 0.00 0.00 0.00 39 1007.6
20260504182521 69 154 5.2 7.0 0.00 0.00 0.00 40 1007.8
20260504182019 69 231 4.3 5.2 0.00 0.00 0.00 39 1008.0
20260504181516 69 186 0.9 0.9 0.00 0.00 0.00 43 1007.8
20260504181014 68 177 1.7 4.3 0.00 0.00 0.00 41 1007.7
20260504180513 69 210 2.6 4.3 0.00 0.00 0.00 40 1007.8
20260504180011 68 288 2.6 4.3 0.00 0.00 0.00 41 1007.9
20260504175508 69 231 2.6 5.2 0.00 0.00 0.00 39 1008.2
20260504175005 69 181 7.8 9.6 0.00 0.00 0.00 40 1008.1
20260504174503 70 181 2.6 2.6 0.00 0.00 0.00 39 1008.0
20260504174000 68 165 3.5 4.3 0.00 0.00 0.00 40 1008.0
20260504173456 69 211 2.6 4.3 0.00 0.00 0.00 40 1008.2
20260504172954 69 246 5.2 6.1 0.00 0.00 0.00 40 1008.3
20260504172449 68 215 6.1 7.8 0.00 0.00 0.00 41 1008.3
20260504171946 68 222 1.7 2.6 0.00 0.00 0.00 42 1008.4
20260504171443 68 236 9.6 11.3 0.00 0.00 0.00 40 1008.3
20260504170940 68 215 5.2 7.0 0.00 0.00 0.00 41 1008.1
20260504170436 67 256 2.6 4.3 0.00 0.00 0.00 42 1008.6
20260504160356 64 236 3.5 4.3 0.00 0.00 0.00 42 1009.4
20260504150820 61 158 4.3 6.1 0.00 0.00 0.00 45 1009.7
20260504150317 60 209 6.1 7.8 0.00 0.00 0.00 45 1009.7
20260504141247 59 197 1.7 2.6 0.00 0.00 0.00 46 1010.2
20260504140743 59 272 6.1 7.8 0.00 0.00 0.00 45 1010.3
20260504140239 58 225 6.1 7.8 0.00 0.00 0.00 45 1010.4
20260504130708 52 172 4.3 7.0 0.00 0.00 0.00 53 1010.7
20260504130203 51 79 1.7 1.7 0.00 0.00 0.00 54 1010.8
20260504120128 50 240 3.5 5.2 0.00 0.00 0.00 55 1011.4
20260504110555 49 175 3.5 4.3 0.00 0.00 0.00 55 1011.2
20260504100517 46 179 0.0 0.0 0.00 0.00 0.00 59 1011.1
20260504081904 46 291 1.7 2.6 0.00 0.00 0.00 58 1011.1
20260504081401 46 225 0.9 0.9 0.00 0.00 0.00 58 1011.2
20260504080857 46 125 1.7 1.7 0.00 0.00 0.00 58 1011.1
20260504080354 46 166 0.0 0.9 0.00 0.00 0.00 58 1011.3
20260504070321 47 194 0.0 0.9 0.00 0.00 0.00 56 1011.3